Year,Month,Day,Hour,Minute,Value (Times are PST for temperature in C)
2010,06,03,00,00,7.20
2010,06,03,00,01,7.20
2010,06,03,00,02,7.20
2010,06,03,00,03,7.20
2010,06,03,00,04,7.20
2010,06,03,00,05,7.10
2010,06,03,00,06,7.10
2010,06,03,00,07,7.10
2010,06,03,00,08,7.10
2010,06,03,00,09,7.10
2010,06,03,00,10,7.10
2010,06,03,00,11,7.10
2010,06,03,00,12,7.10
2010,06,03,00,13,7.10
2010,06,03,00,14,7.10
2010,06,03,00,15,7.10
2010,06,03,00,16,7.10
2010,06,03,00,17,7.10
2010,06,03,00,18,7.10
2010,06,03,00,19,7.10
2010,06,03,00,20,7.10
2010,06,03,00,21,7.10
2010,06,03,00,22,7.10
2010,06,03,00,23,7.10
2010,06,03,00,24,7.10
2010,06,03,00,25,7.10
2010,06,03,00,26,7.10
2010,06,03,00,27,7.10
2010,06,03,00,28,7.20
2010,06,03,00,29,7.20
2010,06,03,00,30,7.20
2010,06,03,00,31,7.20
2010,06,03,00,32,7.20
2010,06,03,00,33,7.20
2010,06,03,00,34,7.20
2010,06,03,00,35,7.20
2010,06,03,00,36,7.20
2010,06,03,00,37,7.20
2010,06,03,00,38,7.10
2010,06,03,00,39,7.10
2010,06,03,00,40,7.10
2010,06,03,00,41,7.10
2010,06,03,00,42,7.10
2010,06,03,00,43,7.10
2010,06,03,00,44,7.10
2010,06,03,00,45,7.00
2010,06,03,00,46,7.00
2010,06,03,00,47,7.00
2010,06,03,00,48,7.00
2010,06,03,00,49,6.90
2010,06,03,00,50,6.90
2010,06,03,00,51,6.90
2010,06,03,00,52,6.90
2010,06,03,00,53,6.90
2010,06,03,00,54,6.80
2010,06,03,00,55,6.80
2010,06,03,00,56,6.80
2010,06,03,00,57,6.80
2010,06,03,00,58,6.80
2010,06,03,00,59,6.80
2010,06,03,01,00,6.80
2010,06,03,01,01,6.80
2010,06,03,01,02,6.70
2010,06,03,01,03,6.70
2010,06,03,01,04,6.70
2010,06,03,01,05,6.70
2010,06,03,01,06,6.70
2010,06,03,01,07,6.70
2010,06,03,01,08,6.60
2010,06,03,01,09,6.60
2010,06,03,01,10,6.60
2010,06,03,01,11,6.60
2010,06,03,01,12,6.60
2010,06,03,01,13,6.50
2010,06,03,01,14,6.50
2010,06,03,01,15,6.50
2010,06,03,01,16,6.40
2010,06,03,01,17,6.40
2010,06,03,01,18,6.40
2010,06,03,01,19,6.40
2010,06,03,01,20,6.30
2010,06,03,01,21,6.30
2010,06,03,01,22,6.30
2010,06,03,01,23,6.30
2010,06,03,01,24,6.30
2010,06,03,01,25,6.30
2010,06,03,01,26,6.20
2010,06,03,01,27,6.20
2010,06,03,01,28,6.20
2010,06,03,01,29,6.20
2010,06,03,01,30,6.20
2010,06,03,01,31,6.20
2010,06,03,01,32,6.10
2010,06,03,01,33,6.10
2010,06,03,01,34,6.10
2010,06,03,01,35,6.10
2010,06,03,01,36,6.10
2010,06,03,01,37,6.10
2010,06,03,01,38,6.10
2010,06,03,01,39,6.10
2010,06,03,01,40,6.00
2010,06,03,01,41,6.00
2010,06,03,01,42,6.00
2010,06,03,01,43,6.00
2010,06,03,01,44,6.00
2010,06,03,01,45,5.90
2010,06,03,01,46,5.90
2010,06,03,01,47,5.90
2010,06,03,01,48,5.90
2010,06,03,01,49,5.90
2010,06,03,01,50,5.90
2010,06,03,01,51,5.90
2010,06,03,01,52,5.90
2010,06,03,01,53,5.90
2010,06,03,01,54,5.90
2010,06,03,01,55,5.90
2010,06,03,01,56,5.80
2010,06,03,01,57,5.80
2010,06,03,01,58,5.80
2010,06,03,01,59,5.80
2010,06,03,02,00,5.80
2010,06,03,02,01,5.80
2010,06,03,02,02,5.80
2010,06,03,02,03,5.80
2010,06,03,02,04,5.80
2010,06,03,02,05,5.80
2010,06,03,02,06,5.80
2010,06,03,02,07,5.80
2010,06,03,02,08,5.80
2010,06,03,02,09,5.80
2010,06,03,02,10,5.80
2010,06,03,02,11,5.80
2010,06,03,02,12,5.80
2010,06,03,02,13,5.80
2010,06,03,02,14,5.80
2010,06,03,02,15,5.80
2010,06,03,02,16,5.80
2010,06,03,02,17,5.80
2010,06,03,02,18,5.80
2010,06,03,02,19,5.80
2010,06,03,02,20,5.80
2010,06,03,02,21,5.80
2010,06,03,02,22,5.80
2010,06,03,02,23,5.80
2010,06,03,02,24,5.80
2010,06,03,02,25,5.80
2010,06,03,02,26,5.80
2010,06,03,02,27,5.80
2010,06,03,02,28,5.80
2010,06,03,02,29,5.90
2010,06,03,02,30,5.90
2010,06,03,02,31,5.90
2010,06,03,02,32,5.90
2010,06,03,02,33,5.90
2010,06,03,02,34,6.00
2010,06,03,02,35,6.10
2010,06,03,02,36,6.20
2010,06,03,02,37,6.30
2010,06,03,02,38,6.30
2010,06,03,02,39,6.40
2010,06,03,02,40,6.50
2010,06,03,02,41,6.50
2010,06,03,02,42,6.60
2010,06,03,02,43,6.60
2010,06,03,02,44,6.70
2010,06,03,02,45,6.70
2010,06,03,02,46,6.80
2010,06,03,02,47,6.90
2010,06,03,02,48,7.00
2010,06,03,02,49,7.00
2010,06,03,02,50,7.10
2010,06,03,02,51,7.10
2010,06,03,02,52,7.00
2010,06,03,02,53,6.90
2010,06,03,02,54,6.80
2010,06,03,02,55,6.80
2010,06,03,02,56,6.70
2010,06,03,02,57,6.70
2010,06,03,02,58,6.60
2010,06,03,02,59,6.60
2010,06,03,03,00,6.50
2010,06,03,03,01,6.50
2010,06,03,03,02,6.40
2010,06,03,03,03,6.40
2010,06,03,03,04,6.30
2010,06,03,03,05,6.30
2010,06,03,03,06,6.20
2010,06,03,03,07,6.20
2010,06,03,03,08,6.20
2010,06,03,03,09,6.20
2010,06,03,03,10,6.10
2010,06,03,03,11,6.10
2010,06,03,03,12,6.10
2010,06,03,03,13,6.10
2010,06,03,03,14,6.00
2010,06,03,03,15,6.10
2010,06,03,03,16,6.10
2010,06,03,03,17,6.00
2010,06,03,03,18,6.10
2010,06,03,03,19,6.10
2010,06,03,03,20,6.10
2010,06,03,03,21,6.10
2010,06,03,03,22,6.10
2010,06,03,03,23,6.10
2010,06,03,03,24,6.10
2010,06,03,03,25,6.10
2010,06,03,03,26,6.10
2010,06,03,03,27,6.10
2010,06,03,03,28,6.10
2010,06,03,03,29,6.10
2010,06,03,03,30,6.10
2010,06,03,03,31,6.10
2010,06,03,03,32,6.10
2010,06,03,03,33,6.10
2010,06,03,03,34,6.00
2010,06,03,03,35,6.00
2010,06,03,03,36,5.90
2010,06,03,03,37,5.90
2010,06,03,03,38,5.90
2010,06,03,03,39,5.90
2010,06,03,03,40,5.90
2010,06,03,03,41,5.80
2010,06,03,03,42,5.80
2010,06,03,03,43,5.80
2010,06,03,03,44,5.80
2010,06,03,03,45,5.70
2010,06,03,03,46,5.70
2010,06,03,03,47,5.70
2010,06,03,03,48,5.70
2010,06,03,03,49,5.70
2010,06,03,03,50,5.60
2010,06,03,03,51,5.60
2010,06,03,03,52,5.60
2010,06,03,03,53,5.60
2010,06,03,03,54,5.60
2010,06,03,03,55,5.60
2010,06,03,03,56,5.50
2010,06,03,03,57,5.50
2010,06,03,03,58,5.50
2010,06,03,03,59,5.40
2010,06,03,04,00,5.40
2010,06,03,04,01,5.40
2010,06,03,04,02,5.40
2010,06,03,04,03,5.40
2010,06,03,04,04,5.40
2010,06,03,04,05,5.40
2010,06,03,04,06,5.40
2010,06,03,04,07,5.40
2010,06,03,04,08,5.40
2010,06,03,04,09,5.40
2010,06,03,04,10,5.50
2010,06,03,04,11,5.50
2010,06,03,04,12,5.50
2010,06,03,04,13,5.50
2010,06,03,04,14,5.50
2010,06,03,04,15,5.50
2010,06,03,04,16,5.50
2010,06,03,04,17,5.40
2010,06,03,04,18,5.50
2010,06,03,04,19,5.50
2010,06,03,04,20,5.50
2010,06,03,04,21,5.40
2010,06,03,04,22,5.40
2010,06,03,04,23,5.40
2010,06,03,04,24,5.40
2010,06,03,04,25,5.40
2010,06,03,04,26,5.40
2010,06,03,04,27,5.40
2010,06,03,04,28,5.40
2010,06,03,04,29,5.30
2010,06,03,04,30,5.30
2010,06,03,04,31,5.30
2010,06,03,04,32,5.30
2010,06,03,04,33,5.30
2010,06,03,04,34,5.30
2010,06,03,04,35,5.30
2010,06,03,04,36,5.30
2010,06,03,04,37,5.30
2010,06,03,04,38,5.30
2010,06,03,04,39,5.30
2010,06,03,04,40,5.30
2010,06,03,04,41,5.40
2010,06,03,04,42,5.40
2010,06,03,04,43,5.40
2010,06,03,04,44,5.40
2010,06,03,04,45,5.40
2010,06,03,04,46,5.40
2010,06,03,04,47,5.40
2010,06,03,04,48,5.40
2010,06,03,04,49,5.40
2010,06,03,04,50,5.40
2010,06,03,04,51,5.40
2010,06,03,04,52,5.40
2010,06,03,04,53,5.50
2010,06,03,04,54,5.50
2010,06,03,04,55,5.50
2010,06,03,04,56,5.50
2010,06,03,04,57,5.50
2010,06,03,04,58,5.50
2010,06,03,04,59,5.50
2010,06,03,05,00,5.50
2010,06,03,05,01,5.50
2010,06,03,05,02,5.50
2010,06,03,05,03,5.50
2010,06,03,05,04,5.50
2010,06,03,05,05,5.50
2010,06,03,05,06,5.60
2010,06,03,05,07,5.60
2010,06,03,05,08,5.60
2010,06,03,05,09,5.60
2010,06,03,05,10,5.60
2010,06,03,05,11,5.60
2010,06,03,05,12,5.60
2010,06,03,05,13,5.60
2010,06,03,05,14,5.60
2010,06,03,05,15,5.60
2010,06,03,05,16,5.50
2010,06,03,05,17,5.50
2010,06,03,05,18,5.50
2010,06,03,05,19,5.50
2010,06,03,05,20,5.50
2010,06,03,05,21,5.40
2010,06,03,05,22,5.40
2010,06,03,05,23,5.40
2010,06,03,05,24,5.40
2010,06,03,05,25,5.40
2010,06,03,05,26,5.40
2010,06,03,05,27,5.40
2010,06,03,05,28,5.40
2010,06,03,05,29,5.40
2010,06,03,05,30,5.40
2010,06,03,05,31,5.40
2010,06,03,05,32,5.40
2010,06,03,05,33,5.40
2010,06,03,05,34,5.40
2010,06,03,05,35,5.40
2010,06,03,05,36,5.40
2010,06,03,05,37,5.40
2010,06,03,05,38,5.40
2010,06,03,05,39,5.40
2010,06,03,05,40,5.50
2010,06,03,05,41,5.50
2010,06,03,05,42,5.50
2010,06,03,05,43,5.60
2010,06,03,05,44,5.60
2010,06,03,05,45,5.60
2010,06,03,05,46,5.60
2010,06,03,05,47,5.60
2010,06,03,05,48,5.70
2010,06,03,05,49,5.70
2010,06,03,05,50,5.70
2010,06,03,05,51,5.70
2010,06,03,05,52,5.80
2010,06,03,05,53,5.80
2010,06,03,05,54,5.80
2010,06,03,05,55,5.80
2010,06,03,05,56,5.80
2010,06,03,05,57,5.90
2010,06,03,05,58,5.90
2010,06,03,05,59,5.90
2010,06,03,06,00,5.90
2010,06,03,06,01,5.90
2010,06,03,06,02,5.90
2010,06,03,06,03,5.90
2010,06,03,06,04,5.90
2010,06,03,06,05,5.90
2010,06,03,06,06,5.90
2010,06,03,06,07,5.90
2010,06,03,06,08,5.90
2010,06,03,06,09,6.00
2010,06,03,06,10,6.00
2010,06,03,06,11,6.00
2010,06,03,06,12,6.00
2010,06,03,06,13,6.00
2010,06,03,06,14,6.00
2010,06,03,06,15,6.10
2010,06,03,06,16,6.10
2010,06,03,06,17,6.10
2010,06,03,06,18,6.10
2010,06,03,06,19,6.10
2010,06,03,06,20,6.20
2010,06,03,06,21,6.20
2010,06,03,06,22,6.20
2010,06,03,06,23,6.20
2010,06,03,06,24,6.30
2010,06,03,06,25,6.30
2010,06,03,06,26,6.30
2010,06,03,06,27,6.40
2010,06,03,06,28,6.40
2010,06,03,06,29,6.40
2010,06,03,06,30,6.40
2010,06,03,06,31,6.50
2010,06,03,06,32,6.50
2010,06,03,06,33,6.50
2010,06,03,06,34,6.60
2010,06,03,06,35,6.60
2010,06,03,06,36,6.60
2010,06,03,06,37,6.70
2010,06,03,06,38,6.70
2010,06,03,06,39,6.70
2010,06,03,06,40,6.70
2010,06,03,06,41,6.70
2010,06,03,06,42,6.70
2010,06,03,06,43,6.70
2010,06,03,06,44,6.70
2010,06,03,06,45,6.70
2010,06,03,06,46,6.80
2010,06,03,06,47,6.80
2010,06,03,06,48,6.80
2010,06,03,06,49,6.80
2010,06,03,06,50,6.80
2010,06,03,06,51,6.80
2010,06,03,06,52,6.80
2010,06,03,06,53,6.80
2010,06,03,06,54,6.80
2010,06,03,06,55,6.80
2010,06,03,06,56,6.80
2010,06,03,06,57,6.80
2010,06,03,06,58,6.80
2010,06,03,06,59,6.90
2010,06,03,07,00,6.90
2010,06,03,07,01,6.90
2010,06,03,07,02,6.90
2010,06,03,07,03,6.90
2010,06,03,07,04,6.90
2010,06,03,07,05,7.00
2010,06,03,07,06,7.00
2010,06,03,07,07,7.00
2010,06,03,07,08,7.10
2010,06,03,07,09,7.10
2010,06,03,07,10,7.10
2010,06,03,07,11,7.10
2010,06,03,07,12,7.20
2010,06,03,07,13,7.20
2010,06,03,07,14,7.20
2010,06,03,07,15,7.20
2010,06,03,07,16,7.20
2010,06,03,07,17,7.20
2010,06,03,07,18,7.30
2010,06,03,07,19,7.30
2010,06,03,07,20,7.30
2010,06,03,07,21,7.30
2010,06,03,07,22,7.30
2010,06,03,07,23,7.40
2010,06,03,07,24,7.40
2010,06,03,07,25,7.40
2010,06,03,07,26,7.50
2010,06,03,07,27,7.50
2010,06,03,07,28,7.60
2010,06,03,07,29,7.60
2010,06,03,07,30,7.60
2010,06,03,07,31,7.60
2010,06,03,07,32,7.70
2010,06,03,07,33,7.70
2010,06,03,07,34,7.70
2010,06,03,07,35,7.70
2010,06,03,07,36,7.80
2010,06,03,07,37,7.80
2010,06,03,07,38,7.80
2010,06,03,07,39,7.90
2010,06,03,07,40,7.90
2010,06,03,07,41,8.00
2010,06,03,07,42,8.00
2010,06,03,07,43,8.10
2010,06,03,07,44,8.10
2010,06,03,07,45,8.10
2010,06,03,07,46,8.20
2010,06,03,07,47,8.20
2010,06,03,07,48,8.20
2010,06,03,07,49,8.30
2010,06,03,07,50,8.30
2010,06,03,07,51,8.30
2010,06,03,07,52,8.40
2010,06,03,07,53,8.40
2010,06,03,07,54,8.50
2010,06,03,07,55,8.50
2010,06,03,07,56,8.60
2010,06,03,07,57,8.60
2010,06,03,07,58,8.60
2010,06,03,07,59,8.60
2010,06,03,08,00,8.70
2010,06,03,08,01,8.70
2010,06,03,08,02,8.80
2010,06,03,08,03,8.80
2010,06,03,08,04,8.80
2010,06,03,08,05,8.90
2010,06,03,08,06,8.90
2010,06,03,08,07,8.90
2010,06,03,08,08,8.90
2010,06,03,08,09,8.90
2010,06,03,08,10,9.00
2010,06,03,08,11,9.10
2010,06,03,08,12,9.10
2010,06,03,08,13,9.20
2010,06,03,08,14,9.20
2010,06,03,08,15,9.20
2010,06,03,08,16,9.30
2010,06,03,08,17,9.30
2010,06,03,08,18,9.30
2010,06,03,08,19,9.40
2010,06,03,08,20,9.40
2010,06,03,08,21,9.50
2010,06,03,08,22,9.50
2010,06,03,08,23,9.60
2010,06,03,08,24,9.60
2010,06,03,08,25,9.60
2010,06,03,08,26,9.70
2010,06,03,08,27,9.70
2010,06,03,08,28,9.70
2010,06,03,08,29,9.70
2010,06,03,08,30,9.80
2010,06,03,08,31,9.80
2010,06,03,08,32,9.80
2010,06,03,08,33,9.80
2010,06,03,08,34,9.80
2010,06,03,08,35,9.80
2010,06,03,08,36,9.80
2010,06,03,08,37,9.90
2010,06,03,08,38,9.90
2010,06,03,08,39,9.90
2010,06,03,08,40,9.90
2010,06,03,08,41,9.90
2010,06,03,08,42,9.90
2010,06,03,08,43,9.90
2010,06,03,08,44,9.90
2010,06,03,08,45,9.90
2010,06,03,08,46,9.90
2010,06,03,08,47,9.90
2010,06,03,08,48,10.00
2010,06,03,08,49,10.00
2010,06,03,08,50,10.00
2010,06,03,08,51,10.00
2010,06,03,08,52,10.00
2010,06,03,08,53,10.00
2010,06,03,08,54,10.00
2010,06,03,08,55,10.00
2010,06,03,08,56,10.00
2010,06,03,08,57,10.10
2010,06,03,08,58,10.10
2010,06,03,08,59,10.10
2010,06,03,09,00,10.10
2010,06,03,09,01,10.10
2010,06,03,09,02,10.20
2010,06,03,09,03,10.20
2010,06,03,09,04,10.20
2010,06,03,09,05,10.20
2010,06,03,09,06,10.30
2010,06,03,09,07,10.30
2010,06,03,09,08,10.30
2010,06,03,09,09,10.30
2010,06,03,09,10,10.40
2010,06,03,09,11,10.40
2010,06,03,09,12,10.40
2010,06,03,09,13,10.40
2010,06,03,09,14,10.50
2010,06,03,09,15,10.50
2010,06,03,09,16,10.50
2010,06,03,09,17,10.50
2010,06,03,09,18,10.50
2010,06,03,09,19,10.50
2010,06,03,09,20,10.50
2010,06,03,09,21,10.50
2010,06,03,09,22,10.40
2010,06,03,09,23,10.40
2010,06,03,09,24,10.40
2010,06,03,09,25,10.40
2010,06,03,09,26,10.40
2010,06,03,09,27,10.40
2010,06,03,09,28,10.40
2010,06,03,09,29,10.40
2010,06,03,09,30,10.40
2010,06,03,09,31,10.40
2010,06,03,09,32,10.50
2010,06,03,09,33,10.50
2010,06,03,09,34,10.50
2010,06,03,09,35,10.60
2010,06,03,09,36,10.60
2010,06,03,09,37,10.60
2010,06,03,09,38,10.60
2010,06,03,09,39,10.70
2010,06,03,09,40,10.70
2010,06,03,09,41,10.80
2010,06,03,09,42,10.80
2010,06,03,09,43,10.90
2010,06,03,09,44,10.90
2010,06,03,09,45,11.00
2010,06,03,09,46,11.00
2010,06,03,09,47,11.10
2010,06,03,09,48,11.10
2010,06,03,09,49,11.20
2010,06,03,09,50,11.20
2010,06,03,09,51,11.20
2010,06,03,09,52,11.20
2010,06,03,09,53,11.30
2010,06,03,09,54,11.30
2010,06,03,09,55,11.40
2010,06,03,09,56,11.40
2010,06,03,09,57,11.50
2010,06,03,09,58,11.50
2010,06,03,09,59,11.50
2010,06,03,10,00,11.50
2010,06,03,10,01,11.40
2010,06,03,10,02,11.40
2010,06,03,10,03,11.40
2010,06,03,10,04,11.40
2010,06,03,10,05,11.40
2010,06,03,10,06,11.40
2010,06,03,10,07,11.40
2010,06,03,10,08,11.40
2010,06,03,10,09,11.40
2010,06,03,10,10,11.40
2010,06,03,10,11,11.30
2010,06,03,10,12,11.30
2010,06,03,10,13,11.30
2010,06,03,10,14,11.30
2010,06,03,10,15,11.30
2010,06,03,10,16,11.30
2010,06,03,10,17,11.40
2010,06,03,10,18,11.40
2010,06,03,10,19,11.40
2010,06,03,10,20,11.40
2010,06,03,10,21,11.40
2010,06,03,10,22,11.40
2010,06,03,10,23,11.40
2010,06,03,10,24,11.40
2010,06,03,10,25,11.40
2010,06,03,10,26,11.30
2010,06,03,10,27,11.30
2010,06,03,10,28,11.30
2010,06,03,10,29,11.30
2010,06,03,10,30,11.30
2010,06,03,10,31,11.20
2010,06,03,10,32,11.20
2010,06,03,10,33,11.20
2010,06,03,10,34,11.20
2010,06,03,10,35,11.20
2010,06,03,10,36,11.20
2010,06,03,10,37,11.20
2010,06,03,10,38,11.20
2010,06,03,10,39,11.20
2010,06,03,10,40,11.20
2010,06,03,10,41,11.20
2010,06,03,10,42,11.20
2010,06,03,10,43,11.30
2010,06,03,10,44,11.30
2010,06,03,10,45,11.30
2010,06,03,10,46,11.30
2010,06,03,10,47,11.40
2010,06,03,10,48,11.40
2010,06,03,10,49,11.50
2010,06,03,10,50,11.50
2010,06,03,10,51,11.60
2010,06,03,10,52,11.60
2010,06,03,10,53,11.60
2010,06,03,10,54,11.70
2010,06,03,10,55,11.70
2010,06,03,10,56,11.80
2010,06,03,10,57,11.80
2010,06,03,10,58,11.90
2010,06,03,10,59,11.90
2010,06,03,11,00,12.00
2010,06,03,11,01,12.00
2010,06,03,11,02,12.10
2010,06,03,11,03,12.10
2010,06,03,11,04,12.10
2010,06,03,11,05,12.10
2010,06,03,11,06,12.10
2010,06,03,11,07,12.20
2010,06,03,11,08,12.20
2010,06,03,11,09,12.20
2010,06,03,11,10,12.20
2010,06,03,11,11,12.20
2010,06,03,11,12,12.20
2010,06,03,11,13,12.20
2010,06,03,11,14,12.10
2010,06,03,11,15,12.10
2010,06,03,11,16,12.10
2010,06,03,11,17,12.10
2010,06,03,11,18,12.10
2010,06,03,11,19,12.00
2010,06,03,11,20,12.00
2010,06,03,11,21,11.90
2010,06,03,11,22,11.90
2010,06,03,11,23,11.90
2010,06,03,11,24,11.90
2010,06,03,11,25,11.80
2010,06,03,11,26,11.80
2010,06,03,11,27,11.80
2010,06,03,11,28,11.70
2010,06,03,11,29,11.70
2010,06,03,11,30,11.70
2010,06,03,11,31,11.70
2010,06,03,11,32,11.70
2010,06,03,11,33,11.70
2010,06,03,11,34,11.70
2010,06,03,11,35,11.70
2010,06,03,11,36,11.60
2010,06,03,11,37,11.60
2010,06,03,11,38,11.60
2010,06,03,11,39,11.50
2010,06,03,11,40,11.40
2010,06,03,11,41,11.40
2010,06,03,11,42,11.40
2010,06,03,11,43,11.30
2010,06,03,11,44,11.30
2010,06,03,11,45,11.30
2010,06,03,11,46,11.30
2010,06,03,11,47,11.20
2010,06,03,11,48,11.10
2010,06,03,11,49,11.10
2010,06,03,11,50,11.00
2010,06,03,11,51,11.00
2010,06,03,11,52,11.00
2010,06,03,11,53,10.90
2010,06,03,11,54,10.90
2010,06,03,11,55,10.90
2010,06,03,11,56,11.00
2010,06,03,11,57,11.00
2010,06,03,11,58,11.00
2010,06,03,11,59,11.00
2010,06,03,12,00,11.00
2010,06,03,12,01,11.10
2010,06,03,12,02,11.10
2010,06,03,12,03,11.20
2010,06,03,12,04,11.20
2010,06,03,12,05,11.20
2010,06,03,12,06,11.20
2010,06,03,12,07,11.20
2010,06,03,12,08,11.30
2010,06,03,12,09,11.30
2010,06,03,12,10,11.30
2010,06,03,12,11,11.40
2010,06,03,12,12,11.40
2010,06,03,12,13,11.40
2010,06,03,12,14,11.50
2010,06,03,12,15,11.50
2010,06,03,12,16,11.60
2010,06,03,12,17,11.60
2010,06,03,12,18,11.60
2010,06,03,12,19,11.70
2010,06,03,12,20,11.70
2010,06,03,12,21,11.70
2010,06,03,12,22,11.70
2010,06,03,12,23,11.70
2010,06,03,12,24,11.70
2010,06,03,12,25,11.70
2010,06,03,12,26,11.70
2010,06,03,12,27,11.70
2010,06,03,12,28,11.80
2010,06,03,12,29,11.80
2010,06,03,12,30,11.90
2010,06,03,12,31,12.00
2010,06,03,12,32,12.10
2010,06,03,12,33,12.20
2010,06,03,12,34,12.30
2010,06,03,12,35,12.40
2010,06,03,12,36,12.40
2010,06,03,12,37,12.50
2010,06,03,12,38,12.60
2010,06,03,12,39,12.60
2010,06,03,12,40,12.60
2010,06,03,12,41,12.60
2010,06,03,12,42,12.70
2010,06,03,12,43,12.70
2010,06,03,12,44,12.70
2010,06,03,12,45,12.60
2010,06,03,12,46,12.60
2010,06,03,12,47,12.60
2010,06,03,12,48,12.50
2010,06,03,12,49,12.50
2010,06,03,12,50,12.40
2010,06,03,12,51,12.50
2010,06,03,12,52,12.50
2010,06,03,12,53,12.50
2010,06,03,12,54,12.60
2010,06,03,12,55,12.60
2010,06,03,12,56,12.70
2010,06,03,12,57,12.70
2010,06,03,12,58,12.70
2010,06,03,12,59,12.80
2010,06,03,13,00,12.80
2010,06,03,13,01,12.80
2010,06,03,13,02,12.80
2010,06,03,13,03,12.90
2010,06,03,13,04,12.90
2010,06,03,13,05,12.90
2010,06,03,13,06,12.90
2010,06,03,13,07,12.90
2010,06,03,13,08,12.90
2010,06,03,13,09,13.00
2010,06,03,13,10,13.00
2010,06,03,13,11,13.10
2010,06,03,13,12,13.10
2010,06,03,13,13,13.10
2010,06,03,13,14,13.10
2010,06,03,13,15,13.20
2010,06,03,13,16,13.20
2010,06,03,13,17,13.20
2010,06,03,13,18,13.30
2010,06,03,13,19,13.30
2010,06,03,13,20,13.40
2010,06,03,13,21,13.50
2010,06,03,13,22,13.50
2010,06,03,13,23,13.60
2010,06,03,13,24,13.70
2010,06,03,13,25,13.70
2010,06,03,13,26,13.70
2010,06,03,13,27,13.70
2010,06,03,13,28,13.70
2010,06,03,13,29,13.70
2010,06,03,13,30,13.80
2010,06,03,13,31,13.80
2010,06,03,13,32,13.90
2010,06,03,13,33,13.90
2010,06,03,13,34,13.90
2010,06,03,13,35,14.00
2010,06,03,13,36,14.00
2010,06,03,13,37,14.10
2010,06,03,13,38,14.10
2010,06,03,13,39,14.20
2010,06,03,13,40,14.20
2010,06,03,13,41,14.30
2010,06,03,13,42,14.30
2010,06,03,13,43,14.40
2010,06,03,13,44,14.50
2010,06,03,13,45,14.60
2010,06,03,13,46,14.70
2010,06,03,13,47,14.90
2010,06,03,13,48,15.00
2010,06,03,13,49,15.00
2010,06,03,13,50,15.00
2010,06,03,13,51,15.00
2010,06,03,13,52,15.00
2010,06,03,13,53,15.00
2010,06,03,13,54,14.90
2010,06,03,13,55,14.80
2010,06,03,13,56,14.80
2010,06,03,13,57,14.70
2010,06,03,13,58,14.70
2010,06,03,13,59,14.60
2010,06,03,14,00,14.50
2010,06,03,14,01,14.40
2010,06,03,14,02,14.40
2010,06,03,14,03,14.30
2010,06,03,14,04,14.30
2010,06,03,14,05,14.20
2010,06,03,14,06,14.20
2010,06,03,14,07,14.10
2010,06,03,14,08,14.00
2010,06,03,14,09,13.90
2010,06,03,14,10,13.80
2010,06,03,14,11,13.70
2010,06,03,14,12,13.70
2010,06,03,14,13,13.60
2010,06,03,14,14,13.50
2010,06,03,14,15,13.50
2010,06,03,14,16,13.40
2010,06,03,14,17,13.40
2010,06,03,14,18,13.30
2010,06,03,14,19,13.30
2010,06,03,14,20,13.20
2010,06,03,14,21,13.20
2010,06,03,14,22,13.20
2010,06,03,14,23,13.10
2010,06,03,14,24,13.10
2010,06,03,14,25,13.10
2010,06,03,14,26,13.10
2010,06,03,14,27,13.10
2010,06,03,14,28,13.10
2010,06,03,14,29,13.20
2010,06,03,14,30,13.20
2010,06,03,14,31,13.20
2010,06,03,14,32,13.20
2010,06,03,14,33,13.30
2010,06,03,14,34,13.30
2010,06,03,14,35,13.30
2010,06,03,14,36,13.40
2010,06,03,14,37,13.40
2010,06,03,14,38,13.40
2010,06,03,14,39,13.40
2010,06,03,14,40,13.40
2010,06,03,14,41,13.40
2010,06,03,14,42,13.40
2010,06,03,14,43,13.40
2010,06,03,14,44,13.40
2010,06,03,14,45,13.40
2010,06,03,14,46,13.30
2010,06,03,14,47,13.30
2010,06,03,14,48,13.30
2010,06,03,14,49,13.30
2010,06,03,14,50,13.30
2010,06,03,14,51,13.30
2010,06,03,14,52,13.40
2010,06,03,14,53,13.50
2010,06,03,14,54,13.70
2010,06,03,14,55,13.80
2010,06,03,14,56,13.90
2010,06,03,14,57,14.10
2010,06,03,14,58,14.10
2010,06,03,14,59,14.10
2010,06,03,15,00,14.10
2010,06,03,15,01,14.60
2010,06,03,15,02,14.70
2010,06,03,15,03,14.80
2010,06,03,15,04,14.90
2010,06,03,15,05,14.90
2010,06,03,15,06,15.00
2010,06,03,15,07,14.90
2010,06,03,15,08,14.90
2010,06,03,15,09,14.80
2010,06,03,15,10,14.80
2010,06,03,15,11,14.80
2010,06,03,15,12,14.80
2010,06,03,15,13,14.80
2010,06,03,15,14,14.80
2010,06,03,15,15,15.00
2010,06,03,15,16,15.00
2010,06,03,15,17,15.00
2010,06,03,15,18,15.20
2010,06,03,15,19,15.40
2010,06,03,15,20,15.50
2010,06,03,15,21,15.60
2010,06,03,15,22,15.70
2010,06,03,15,23,15.70
2010,06,03,15,24,15.70
2010,06,03,15,25,15.80
2010,06,03,15,26,15.80
2010,06,03,15,27,15.90
2010,06,03,15,28,16.00
2010,06,03,15,29,16.10
2010,06,03,15,30,16.20
2010,06,03,15,31,16.10
2010,06,03,15,32,16.10
2010,06,03,15,33,16.10
2010,06,03,15,34,16.10
2010,06,03,15,35,16.00
2010,06,03,15,36,16.00
2010,06,03,15,37,15.90
2010,06,03,15,38,15.80
2010,06,03,15,39,15.80
2010,06,03,15,40,15.80
2010,06,03,15,41,15.80
2010,06,03,15,42,15.80
2010,06,03,15,43,15.70
2010,06,03,15,44,15.70
2010,06,03,15,45,15.70
2010,06,03,15,46,15.60
2010,06,03,15,47,15.50
2010,06,03,15,48,15.40
2010,06,03,15,49,15.30
2010,06,03,15,50,15.30
2010,06,03,15,51,15.30
2010,06,03,15,52,15.20
2010,06,03,15,53,15.20
2010,06,03,15,54,15.20
2010,06,03,15,55,15.20
2010,06,03,15,56,15.20
2010,06,03,15,57,15.10
2010,06,03,15,58,15.00
2010,06,03,15,59,15.00
2010,06,03,16,00,15.00
2010,06,03,16,01,15.00
2010,06,03,16,02,15.00
2010,06,03,16,03,15.00
2010,06,03,16,04,15.00
2010,06,03,16,05,15.00
2010,06,03,16,06,15.00
2010,06,03,16,07,15.00
2010,06,03,16,08,15.00
2010,06,03,16,09,15.00
2010,06,03,16,10,15.00
2010,06,03,16,11,15.00
2010,06,03,16,12,15.00
2010,06,03,16,13,15.00
2010,06,03,16,14,15.00
2010,06,03,16,15,15.10
2010,06,03,16,16,15.20
2010,06,03,16,17,15.20
2010,06,03,16,18,15.20
2010,06,03,16,19,15.20
2010,06,03,16,20,15.10
2010,06,03,16,21,15.00
2010,06,03,16,22,15.00
2010,06,03,16,23,15.00
2010,06,03,16,24,15.00
2010,06,03,16,25,15.00
2010,06,03,16,26,15.00
2010,06,03,16,27,15.00
2010,06,03,16,28,15.00
2010,06,03,16,29,15.00
2010,06,03,16,30,15.00
2010,06,03,16,31,14.90
2010,06,03,16,32,14.90
2010,06,03,16,33,14.90
2010,06,03,16,34,14.90
2010,06,03,16,35,14.90
2010,06,03,16,36,15.00
2010,06,03,16,37,15.00
2010,06,03,16,38,15.00
2010,06,03,16,39,14.90
2010,06,03,16,40,14.90
2010,06,03,16,41,14.90
2010,06,03,16,42,14.80
2010,06,03,16,43,14.80
2010,06,03,16,44,14.80
2010,06,03,16,45,14.80
2010,06,03,16,46,14.80
2010,06,03,16,47,14.90
2010,06,03,16,48,15.00
2010,06,03,16,49,15.00
2010,06,03,16,50,15.00
2010,06,03,16,51,15.00
2010,06,03,16,52,15.00
2010,06,03,16,53,15.00
2010,06,03,16,54,15.00
2010,06,03,16,55,15.00
2010,06,03,16,56,15.00
2010,06,03,16,57,15.00
2010,06,03,16,58,15.00
2010,06,03,16,59,15.00
2010,06,03,17,00,15.00
2010,06,03,17,01,15.00
2010,06,03,17,02,14.90
2010,06,03,17,03,14.80
2010,06,03,17,04,14.80
2010,06,03,17,05,14.80
2010,06,03,17,06,14.80
2010,06,03,17,07,14.80
2010,06,03,17,08,14.80
2010,06,03,17,09,14.80
2010,06,03,17,10,14.80
2010,06,03,17,11,14.70
2010,06,03,17,12,14.70
2010,06,03,17,13,14.70
2010,06,03,17,14,14.70
2010,06,03,17,15,14.70
2010,06,03,17,16,14.70
2010,06,03,17,17,14.70
2010,06,03,17,18,14.80
2010,06,03,17,19,14.80
2010,06,03,17,20,14.80
2010,06,03,17,21,14.80
2010,06,03,17,22,14.80
2010,06,03,17,23,14.80
2010,06,03,17,24,14.80
2010,06,03,17,25,14.80
2010,06,03,17,26,14.90
2010,06,03,17,27,14.90
2010,06,03,17,28,14.90
2010,06,03,17,29,14.90
2010,06,03,17,30,14.80
2010,06,03,17,31,14.80
2010,06,03,17,32,14.90
2010,06,03,17,33,14.90
2010,06,03,17,34,14.90
2010,06,03,17,35,14.90
2010,06,03,17,36,14.90
2010,06,03,17,37,14.90
2010,06,03,17,38,14.90
2010,06,03,17,39,14.80
2010,06,03,17,40,14.80
2010,06,03,17,41,14.80
2010,06,03,17,42,14.90